Cloud_Cover
100 100 100 100 100 100 100 86 100 100 100 99 46 98 0 0 0 0 0 0 0 0 0 0 0 0 0 10 47 96 100 89 96 100 100 69 89 100 100 100 100 100 100 100 100
100 100 100 100 100 100 100 100 100 100 100 99 53 36 0 0 0 0 0 0 0 1 5 3 6 0 0 56 81 100 21 6 90 89 47 38 100 100 100 100 100 100 100 100 100
100 100 100 100 100 100 100 100 100 100 100 100 66 5 5 2 0 0 0 0 2 1 5 4 0 0 1 100 37 14 64 42 31 31 14 8 97 100 100 100 100 100 100 100 100
100 100 100 100 100 100 100 100 100 100 100 100 19 24 31 0 0 0 0 0 0 0 0 0 0 1 5 99 98 83 62 6 5 7 94 100 100 100 100 100 100 100 100 100 100
100 100 100 100 100 100 100 100 100 100 100 100 82 5 5 0 0 5 0 2 0 0 0 0 0 0 5 19 4 99 73 40 80 6 12 99 94 100 100 100 100 100 100 100 100
100 100 100 100 100 100 100 100 100 100 100 100 59 5 30 5 0 0 0 0 5 0 0 0 0 0 0 21 84 100 69 5 19 9 2 8 74 99 98 38 98 100 100 89 100
100 100 100 100 100 100 100 100 100 100 100 100 92 100 8 5 3 2 0 0 0 0 2 0 0 2 0 0 1 51 89 92 3 5 3 0 0 16 42 92 8 100 100 98 56
100 100 100 100 100 100 100 100 100 100 100 100 100 76 21 8 5 5 0 0 0 0 0 0 0 0 29 6 2 4 51 76 84 60 18 2 1 1 12 16 26 10 93 62 42
100 100 100 100 100 100 100 100 100 100 100 100 100 100 100 97 8 5 4 5 1 1 0 0 0 0 0 2 4 75 100 100 100 100 100 82 5 19 99 100 100 96 53 18 5
100 100 100 100 100 100 100 100 100 100 100 100 96 38 93 100 70 11 5 5 5 5 3 0 0 0 0 0 0 0 0 7 14 44 70 43 80 26 28 25 9 26 39 52 78
100 100 100 100 100 100 100 100 100 100 100 100 95 98 100 100 100 100 11 6 5 13 100 1 0 0 0 0 0 0 0 0 0 0 0 0 0 3 3 3 0 0 5 4 4
100 100 100 100 100 100 100 100 100 100 100 100 100 100 100 100 97 100 100 8 6 12 100 99 0 0 0 0 0 1 1 0 0 0 0 0 0 0 0 0 0 0 0 1 58
100 100 100 100 100 100 100 100 100 100 100 100 100 100 100 100 100 100 100 46 50 48 94 100 44 0 0 0 0 0 2 3 12 11 0 0 0 0 0 0 0 0 0 0 0
100 100 100 100 100 100 100 100 100 100 100 100 97 100 100 99 100 100 100 95 7 66 98 100 86 1 0 0 0 0 0 1 5 4 1 1 0 0 0 0 0 0 0 0 0
100 100 100 100 100 100 100 100 100 100 100 100 99 100 100 98 100 100 100 98 5 53 100 98 5 5 5 0 0 0 0 0 0 0 0 1 0 0 0 0 0 0 0 0 0
100 100 100 100 100 100 100 100 100 100 100 100 100 100 100 97 100 100 100 100 8 5 83 19 80 6 14 4 0 0 0 0 0 0 0 0 0 0 0 0 0 0 0 0 0
100 100 100 100 100 100 100 100 100 100 100 100 100 100 100 100 100 100 100 100 63 34 45 5 77 78 4 5 0 0 0 3 0 0 0 0 0 0 0 0 0 0 0 0 0
100 100 100 100 100 100 100 100 100 100 100 100 100 100 100 100 100 100 100 100 96 31 58 9 90 100 5 6 0 0 0 0 0 0 0 0 0 0 0 0 0 0 0 0 0
100 100 100 100 99 100 97 100 100 100 100 100 100 100 100 100 100 100 100 100 100 60 86 100 96 100 100 22 4 5 0 0 0 0 0 0 0 0 0 0 0 0 0 0 0
100 100 100 100 100 83 100 100 100 100 100 100 100 100 100 100 100 100 100 100 100 100 58 100 100 100 100 52 3 1 5 0 2 0 0 2 0 0 1 0 0 0 0 0 0
100 100 100 100 98 85 100 100 100 100 100 100 100 100 100 100 100 100 100 100 100 100 77 69 100 100 100 18 5 2 5 5 2 2 5 5 7 0 5 0 0 0 0 0 0
100 100 100 100 91 100 100 100 100 100 100 100 100 100 100 100 100 100 100 100 100 100 63 74 100 100 100 19 3 4 5 5 5 5 5 46 70 0 5 0 0 0 0 0 0
100 100 100 100 100 100 100 100 100 100 100 100 100 100 100 100 100 100 100 100 100 100 100 100 100 100 98 9 5 5 10 5 5 5 5 27 6 5 22 5 5 5 5 0 0
100 100 100 100 100 100 100 100 100 100 100 100 100 100 100 100 100 100 100 100 100 100 100 100 100 100 36 94 5 5 95 43 5 5 6 77 5 5 27 33 5 3 4 0 0
100 100 100 100 100 100 100 100 100 100 100 100 100 100 100 100 100 100 86 100 100 100 100 100 100 100 8 84 6 72 6 5 20 5 22 62 77 5 50 21 6 3 5 0 0
100 100 100 100 100 100 100 100 100 100 100 100 100 100 100 100 100 100 100 100 100 100 100 100 100 100 100 5 25 99 14 62 100 39 94 52 8 5 36 58 5 5 4 4 0
100 100 100 100 100 100 100 100 100 100 100 100 100 100 100 100 100 100 100 100 100 100 100 100 100 100 100 44 76 98 54 100 100 100 100 33 41 5 36 5 5 5 5 0 0